Location: Home
(42.5358°N, 72.7383°W)
Time: 21:33:02
(UTC-05:00)

Vanguard 2 - Pass Details

Date: 01 December 2021
Orbit: 553 x 2936 km, 32.9° (Epoch: 20 January)

Event Time Altitude Azimuth Distance (km) Brightness Sun altitude
Rises 18:28:35 0° 267° (W) 4,233 12.8 -23.3°
Reaches altitude 10° 18:31:24 10° 257° (WSW) 3,558 12.0 -23.8°
Maximum altitude 18:39:37 33° 199° (SSW) 2,932 10.6 -25.3°
Drops below altitude 10° 18:51:39 10° 144° (SE) 5,249 11.5 -27.5°
Enters shadow 18:55:35 - 138° (SE) 6,197 11.8 -28.3°
Sets 18:56:58 0° 136° (SE) 6,526 - -28.5°
